Regional Weather Roundup
Issued by NWS

Home | Current Version | Previous Version | Graphics & Text | Print | Product List | Glossary Off
Versions: 1 2 3 4 5 6 7 8 9 10 11 12 13 14 15 16 17 18 19 20 21 22 23 24 25 26 27 28 29 30 31 32 33 34 35 36 37 38 39 40 41 42 43 44 45 46 47 48 49 50

023
ASUS43 KTOP 272259
RWRKS

WEATHER ROUNDUP FOR KANSAS
NATIONAL WEATHER SERVICE GOODLAND KS
600 PM CDT THU JUL 27 2017

NOTE:  "FAIR" INDICATES FEW OR NO CLOUDS BELOW 12,000 FEET WITH NO
SIGNIFICANT WEATHER AND/OR OBSTRUCTIONS TO VISIBILITY.

KSZ001>006-013>018-027>032-041>047-280000-
NORTHWEST KANSAS

CITY           SKY/WX    TMP DP  RH WIND       PRES   REMARKS
GOODLAND       MOSUNNY   83  64  52 SE13G18   30.08F
HAYS           CLOUDY    84  66  54 NE13      30.02F
HILL CITY      MOSUNNY   87  63  44 E12       30.03F
RUSSELL        CLOUDY    85  64  49 E10       30.00F
$$

KSZ061>065-074>080-084>089-280000-
SOUTHWEST KANSAS

CITY           SKY/WX    TMP DP  RH WIND       PRES   REMARKS
DODGE CITY     CLOUDY    81  68  64 N5        30.05F
GARDEN CITY    CLOUDY    82  65  56 CALM      30.06F
GREAT BEND     CLOUDY    85  67  54 NE12      30.00F
LIBERAL        CLOUDY    82  69  64 N10       30.07S
$$

KSZ066>073-081>083-090>101-280000-
SOUTHEAST KANSAS

CITY           SKY/WX    TMP DP  RH WIND       PRES   REMARKS
CHANUTE        CLOUDY    86  75  69 N10       29.91F HX  95
COFFEYVILLE    CLOUDY    89  74  60 SE10      29.88S HX  98
HUTCHINSON     CLOUDY    86  71  60 NE9       29.95F
MEDICINE LODGE   N/A     86  69  56 NE8       29.95F
NEWTON         CLOUDY    84  70  62 NE12      29.96F
PARSONS        CLOUDY    88  75  65 VRB3      29.90S HX  97
WICHITA INTL   CLOUDY    85  73  67 NE18G24   29.93F
WICHITA JABRA  CLOUDY    83  74  74 NE10      29.94F
WINFIELD       PTSUNNY   88  75  65 N20       29.91S HX  97
$$

KSZ007>012-019>026-033>040-048>060-102>105-280000-
NORTHEAST KANSAS

CITY           SKY/WX    TMP DP  RH WIND       PRES   REMARKS
CONCORDIA      MOSUNNY   84  66  54 NE12      29.99F
EMPORIA        PTSUNNY   86  71  60 NE9       29.94F
LAWRENCE       PTSUNNY   84  73  69 N7        29.94S
MANHATTAN      CLOUDY    86  68  54 NE13      29.95F
OLATHE IND     MOSUNNY   84  73  69 N10       29.94F
OLATHE EXE     MOSUNNY   84  73  69 N9        29.94S
SALINA         PTSUNNY   88  66  48 N13       29.97F
TOPEKA BILLARD CLOUDY    84  73  69 NE8       29.94F
TOPEKA FORBES  CLOUDY    85  73  67 NE9       29.95F
$$




USA.gov is the U.S. government's official web portal to all federal, state and local government web resources and services.